Tracking 27086 objects as of 22-Mar-2023
HD Live streaming from Space Station
objects crossing your sky now

KOMPSAT

Track KOMPSAT now!
10-day predictions
KOMPSAT is classified as:


NORAD ID: 26032
Int'l Code: 1999-070A
Perigee: 662.5 km
Apogee: 670.1 km
Inclination: 98.2 °
Period: 97.9 minutes
Semi major axis: 7037 km
RCS: 2.132 m2 (large)
Launch date: December 21, 1999
Source: South Korea (SKOR)
Launch site: AIR FORCE WESTERN TEST RANGE (AFWTR)

Digital cartography of Korea and status of marine biology; satellite also released 3 dozen capsules of cremated remains.
Your satellite tracking list
Your tracking list is empty




NASA's NSSDC Master Catalog

Two Line Element Set (TLE):
1 26032U 99070A   23081.39231391  .00002725  00000-0  45639-3 0  9999
2 26032  98.1501 219.1073 0005348  72.8633 287.3136 14.70599850244920
Source of the keplerian elements: AFSPC